Weather in Tiribrovo

Russia / Vladimir Oblast     56°30′59″N   38°28′32″E
temp.,
°C
wind,
m/s
gust,
m/s
humid.,
%
clouds,
%
prec.,
mm/h
press.,
hPa
HPBL,
m
9 may, sun
sun900:00+7wnw1297100 4.1 100268
03:00+6nw4998100 4.3 1003568
06:00+5nw51098100 0.9 1005602
09:00+3nnw61297100 1.3 1008660
12:00+3nnw61397100 0.3 1011779
15:00+6n51289100 1.5 10131283
18:00+8n4971100 0.2 1015897
21:00+5nw268386 0.2 1018116
10 may, mon
mon1000:00+3nnw312875 0.0 1021286
03:00+1nnw311850 0.0 1024234
06:00+2nnw39760 0.0 1026249
09:00+8n47480 0.0 10271063
12:00+12n46380 0.0 10271454
15:00+13nne35370 0.0 10271466
18:00+12ne35514 0.0 1027794
21:00+6ene22735 0.0 102916
11 may, tue
tue1100:00+4ne22758 0.0 102920
03:00+3ne22782 0.0 103038
06:00+5ne27758 0.0 1030166
09:00+12ene47545 0.0 1030575
12:00+16ene46445 0.0 1029890
15:00+18ene454720 0.0 1028902
18:00+17ene376135 0.0 1028777
21:00+11ene38880 0.0 1028146
12 may, wed
wed1200:00+9e39910 0.0 1029148
03:00+9e259681 0.0 1028100
06:00+11ene289311 0.0 1028208
09:00+17ene497359 0.0 1026538
12:00+21ene711604 0.0 10241282
15:00+20e61264100 1.3 10222145
18:00+15ese71680100 1.2 10221197
21:00+14se5138543 1.2 1023930
13 may, thu
thu1300:00+12se389888 0.1 1023364
03:00+11e259998 0.1 1023194
06:00+12ese399582 0.1 1022414
09:00+16se51182100 0.4 1021876
12:00+13se3896100 5.2 1021632
15:00+17se4882100 11.1 1020918
18:00+16sse47863 0.6 1019723
21:00+13sse23970 0.6 102064